Hauptseite
METAR-TAF:

METAR-TAF

Flughäfen :

Flughafen Sitten

Sion, Schweiz

Breite: 46-13-11N, Länge: 007-19-36E, Höhe: 483 m

Beobachtung

Neuester Wetterbericht von vor 17 Minuten, um 06:50 UTC
Wind 5 kt aus Ost
Temperatur 20°C
Luftfeuchtigkeit 53%
Luftdruck 1019 hPa
Sichtweite 10 km oder mehr
keine Wolken unter 1500 m und keine Kumulonimbus oder Gewitterwolken

METAR: LSMS 180650Z 09005KT CAVOK 20/10 Q1019 RMK BLU+

Zeit: 09:07 (07:07 UTC)


TAF: fehlend

Wetterbeobachtungen und Prognosen von mehr als 4000 Flughäfen (METAR und TAF Bericht).

Die verfügbaren Stationen werden durch gelbe und rote Markierungen auf der Karte dargestellt.

Führen Sie die Maus auf sie, um den Namen der Station zu sehen.

Darauf klicken, um die Beobachtung von Wetterbeobachtungen und Prognosen zu sehen.

Um die Karte zu ändern : klicken Sie auf den grünen Tasten mit einem schwarzen Kreuz Zum Vergrößern, auf den grünen Button mit einem Gedankenstrich zu verkleinern, oder auf die grünen Pfeile für benachbarte Karten.


METAR-TAF: